Weather History for Elefsis, Greece

Change the Weather History Date:

Friday, February 15, 2013

  Actual Average Record
Temperature  
Mean Temperature 48 °F -  
Max Temperature 53 °F 57 °F 66 °F (1997)
Min Temperature 44 °F 41 °F 26 °F (2004)
Degree Days  
Heating Degree Days 16    
Moisture  
Dew Point 41 °F    
Average Humidity 75    
Maximum Humidity 87    
Minimum Humidity 62    
Precipitation  
Precipitation 0.00 in - - ()
Sea Level Pressure  
Sea Level Pressure 29.84 in    
Wind  
Wind Speed 7 mph ()    
Max Wind Speed 15 mph    
Max Gust Speed -    
Visibility 6.1 miles    
Events Rain    
Averages and records for this station are not official NWS values.
T = Trace of Precipitation, MM = Missing Value Source: Averaged Metar Reports

Daily Weather History Graph

Daily Weather History Graph

Search for Another Location

Airport:

Trip Planner

Search our weather history database for the weather conditions in past years. The results will help you decide how hot, cold, wet, or windy it might be!

Date:

Astronomy

Feb. 15, 2013 Rise Set
Actual Time 7:15 AM EET 6:04 PM EET
Civil Twilight 6:48 AM EET 6:31 PM EET
Nautical Twilight 6:18 AM EET 7:02 PM EET
Astronomical Twilight 5:47 AM EET 7:32 PM EET
Moon 9:47 AM EET (2/15) 11:40 PM EET (2/15)
Length of Visible Light 11h 42m
Length of Day
10h 48m
Waxing Crescent, 27% of the Moon is Illuminated
Feb 15
Waxing Crescent
Feb 17
First Quarter
Feb 25
Full
Mar 4
Last Quarter
Mar 11
New

Hourly Weather History & Observations

Time (EET) Temp. Windchill Dew Point Humidity Pressure Visibility Wind Dir Wind Speed Gust Speed Precip Events Conditions
12:50 AM 48.2 °F - 41.0 °F 76% 29.68 in 6.2 mi NW 8.1 mph - N/A Rain Light Rain
1:50 AM 48.2 °F - 39.2 °F 71% 29.68 in 6.2 mi Calm Calm - N/A   Mostly Cloudy
2:50 AM 48.2 °F - 39.2 °F 71% 29.68 in 6.2 mi NNW 5.8 mph - N/A   Mostly Cloudy
4:50 AM 44.6 °F 40.2 °F 39.2 °F 81% 29.68 in 6.2 mi NW 8.1 mph - N/A Rain Light Rain
5:20 AM 44.6 °F 40.2 °F 39.2 °F 81% 29.68 in 5.6 mi NW 8.1 mph - N/A Rain Light Rain
5:50 AM 44.6 °F 38.1 °F 39.2 °F 81% 29.68 in 6.2 mi NW 13.8 mph - N/A Rain Light Rain
6:20 AM 44.6 °F 37.8 °F 39.2 °F 81% 29.68 in 5.0 mi NNW 15.0 mph - N/A Rain Rain
6:50 AM 44.6 °F 38.8 °F 39.2 °F 81% 29.68 in 6.2 mi NW 11.5 mph - N/A Rain Light Rain
7:20 AM 46.4 °F 41.9 °F 41.0 °F 81% 29.68 in 6.2 mi NW 9.2 mph - N/A Rain Light Rain
7:50 AM 48.2 °F - 41.0 °F 76% 29.71 in 6.2 mi NNW 9.2 mph - N/A   Light Drizzle
8:20 AM 46.4 °F 40.7 °F 41.0 °F 81% 29.71 in 6.2 mi NNW 12.7 mph - N/A   Light Drizzle
8:50 AM 48.2 °F - 41.0 °F 76% 29.74 in 6.2 mi NNW 12.7 mph - N/A   Drizzle
9:20 AM 48.2 °F - 41.0 °F 76% 29.74 in 6.2 mi NNW 12.7 mph - N/A   Drizzle
9:50 AM 48.2 °F - 42.8 °F 82% 29.77 in 6.2 mi NNW 11.5 mph - N/A   Drizzle
10:20 AM 50.0 °F - 42.8 °F 76% 29.77 in 6.2 mi NNW 10.4 mph - N/A   Drizzle
10:50 AM 50.0 °F - 42.8 °F 76% 29.80 in 5.0 mi NNW 8.1 mph - N/A Rain Light Rain
11:20 AM 50.0 °F - 44.6 °F 82% 29.80 in 5.0 mi NW 8.1 mph - N/A Rain Light Rain
11:50 AM 50.0 °F - 44.6 °F 82% 29.83 in 5.0 mi NNW 9.2 mph - N/A Rain Light Rain
12:20 PM 51.8 °F - 44.6 °F 76% 29.83 in - North 9.2 mph - N/A   Overcast
12:50 PM 51.8 °F - 42.8 °F 71% 29.86 in 6.2 mi North 8.1 mph - N/A   Mostly Cloudy
1:20 PM 53.6 °F - 42.8 °F 67% 29.86 in 6.2 mi North 8.1 mph - N/A   Mostly Cloudy
1:50 PM 51.8 °F - 41.0 °F 67% 29.86 in 6.2 mi North 10.4 mph - N/A   Mostly Cloudy
2:20 PM 53.6 °F - 41.0 °F 62% 29.86 in 6.2 mi NNW 9.2 mph - N/A   Mostly Cloudy
2:50 PM 53.6 °F - 41.0 °F 62% 29.89 in 6.2 mi NNW 9.2 mph - N/A   Mostly Cloudy
3:20 PM 51.8 °F - 41.0 °F 67% 29.89 in 6.2 mi NNW 9.2 mph - N/A   Mostly Cloudy
3:50 PM 51.8 °F - 41.0 °F 67% 29.89 in 6.2 mi NNW 10.4 mph - N/A   Mostly Cloudy
4:20 PM 51.8 °F - 42.8 °F 71% 29.89 in 6.2 mi NNW 5.8 mph - N/A   Mostly Cloudy
4:50 PM 51.8 °F - 41.0 °F 67% 29.92 in 6.2 mi NNW 8.1 mph - N/A   Mostly Cloudy
5:20 PM 51.8 °F - 41.0 °F 67% 29.92 in 6.2 mi NW 5.8 mph - N/A   Mostly Cloudy
5:50 PM 50.0 °F - 41.0 °F 71% 29.95 in 6.2 mi NW 5.8 mph - N/A   Mostly Cloudy
6:20 PM 50.0 °F - 41.0 °F 71% 29.95 in 6.2 mi NW 4.6 mph - N/A   Mostly Cloudy
6:50 PM 50.0 °F - 41.0 °F 71% 29.98 in 6.2 mi NW 5.8 mph - N/A   Mostly Cloudy
7:20 PM 50.0 °F - 41.0 °F 71% 29.98 in 6.2 mi Calm Calm - N/A   Mostly Cloudy
7:50 PM 50.0 °F - 41.0 °F 71% 29.98 in 6.2 mi Variable 3.5 mph - N/A   Mostly Cloudy
8:20 PM 50.0 °F - 41.0 °F 71% 29.98 in 6.2 mi Variable 3.5 mph - N/A   Mostly Cloudy
8:50 PM 48.2 °F - 44.6 °F 87% 29.98 in 6.2 mi Calm Calm - N/A   Mostly Cloudy
9:20 PM 48.2 °F - 41.0 °F 76% 29.98 in 6.2 mi Calm Calm - N/A   Mostly Cloudy
9:50 PM 46.4 °F - 39.2 °F 76% 30.01 in 6.2 mi Calm Calm - N/A   Mostly Cloudy
10:20 PM 46.4 °F - 41.0 °F 81% 30.01 in 6.2 mi Calm Calm - N/A   Mostly Cloudy
10:50 PM 44.6 °F 43.1 °F 39.2 °F 81% 30.01 in 6.2 mi North 3.5 mph - N/A   Scattered Clouds
11:50 PM 44.6 °F 43.1 °F 39.2 °F 81% 30.01 in 6.2 mi NNW 3.5 mph - N/A   Scattered Clouds